Home > Time Zones > World Clock > Weather > Belgium > Spa > Past weeks

Flag for Belgium Weather past 2 weeks in Spa, Belgium

Now
62 °F

Sunny.


Feels Like: 62 °F
Forecast: 57 / 71 °F
Wind: 3 mph from Southeast

Location: Spa / La Sauveniere

Current Time: Sep 17, 2014 at 9:58:53 AM

Latest Report: Sep 17, 2014 at 9:00 AM


Visibility: 9 mi

Pressure: 29.91 "Hg

Humidity: 80%

Dew point: 56 °F

Location of SpaLocation

Historic Weather in Spa — Graph

°F

Spa temperature yesterday

Maximum temperature yesterday: 69 °F (at 6:00 PM)
Minimum temperature yesterday: 56 °F (at 4:00 AM)
Average temperature yesterday: 61 °F

Past Weeks' High & Low Weather Summary

 TemperatureHumidityPressure
High69 °F (Sep 5, 6:00 PM)100% (Sep 7, 1:00 AM)30.27 "Hg (Sep 7, 1:00 AM)
Low46 °F (Sep 9, 6:00 AM)53% (Sep 3, 2:00 PM)29.91 "Hg (Sep 6, 5:00 PM)
Average58 °F84%30.08 "Hg
* Reported Sep 2 8:00 AM — Sep 17 8:00 AM, Spa, Weather by CustomWeather, © 2014

Note: Actual official high and low records may vary slightly from our data, if they occured in-between our weather recording intervals... More about our weather records

Advertising

Spa weather history for previous 24 hours

 ConditionsComfort  
Time TempWeatherWind HumidityBarometerVisibility
8:00 AM
Sep 17
59 °FSunny.5 mph88%29.92 "HgN/A
7:00 AM58 °FClear.5 mph91%29.93 "HgN/A
6:00 AM59 °FClear.5 mph90%29.93 "Hg6 mi
5:00 AM58 °FClear.6 mph90%29.94 "Hg6 mi
4:00 AM58 °FClear.6 mph89%29.94 "Hg7 mi
3:00 AM59 °FClear.6 mph87%29.95 "Hg7 mi
2:00 AM59 °FClear.6 mph85%29.95 "Hg9 mi
1:00 AM59 °FClear.6 mph81%29.96 "Hg12 mi
12:00 AM58 °FClear.3 mph82%29.96 "Hg11 mi
11:00 PM
Sep 16
59 °FClear.5 mph84%29.97 "Hg12 mi
10:00 PM57 °FClear.3 mph89%29.98 "Hg11 mi
9:00 PM60 °FClear.2 mph88%29.96 "Hg9 mi
8:00 PM62 °FClear.1 mph86%29.95 "Hg9 mi
7:00 PM67 °FSunny.1 mph72%29.94 "Hg11 mi
6:00 PM69 °FSunny.2 mph66%29.93 "Hg9 mi
5:00 PM68 °FSunny.2 mph67%29.93 "Hg12 mi
4:00 PM68 °FPassing clouds.N/A62%29.94 "Hg18 mi
3:00 PM67 °FPassing clouds.2 mph68%29.95 "Hg13 mi
2:00 PM65 °FOvercast.2 mph71%29.96 "Hg10 mi
1:00 PM66 °FSunny.N/A63%29.97 "Hg17 mi
12:00 PM64 °FSunny.2 mph70%29.98 "Hg11 mi
11:00 AM63 °FOvercast.3 mph78%30.00 "Hg8 mi
10:00 AM61 °FOvercast.3 mph85%29.99 "HgN/A
9:00 AM60 °FOvercast.3 mph88%29.99 "HgN/A
Weather by CustomWeather, © 2014

See weather overviewHow to use our weather pages